Location: Unspecified
(51.6250°N, 0.8230°E)
Time: 16:20:14
(UTC+01:00)

ISS - Visible Passes

Search period start: 22 September 2018 00:00
Search period end: 02 October 2018 00:00
Orbit: 403 x 408 km, 51.6° (Epoch: 22 September)

Date Brightness Start Highest point End Pass type
(mag) Time Alt. Az. Time Alt. Az. Time Alt. Az.
22 Sep -1.3 21:01:02 10° SSW 21:01:34 13° SSW 21:01:34 13° SSW visible
23 Sep -2.2 20:09:49 10° SSW 20:12:14 19° SE 20:12:20 19° SE visible
24 Sep -1.6 19:19:07 10° SSE 19:20:36 12° SE 19:22:05 10° ESE visible
24 Sep -2.8 20:53:19 10° SW 20:55:36 35° SSW 20:55:36 35° SSW visible
25 Sep -2.9 20:01:44 10° SW 20:04:43 33° SSE 20:06:00 24° ESE visible
25 Sep -1.2 21:37:43 10° WSW 21:38:41 18° WSW 21:38:41 18° WSW visible
26 Sep -3.8 20:45:50 10° WSW 20:48:58 68° SSW 20:48:58 68° SSW visible
27 Sep -3.6 19:54:02 10° WSW 19:57:15 53° SSE 19:59:08 22° E visible
27 Sep -1.5 21:30:24 10° W 21:31:49 23° W 21:31:49 23° W visible
28 Sep -4.0 20:38:27 10° W 20:41:46 88° S 20:41:55 80° E visible
29 Sep -3.8 19:46:32 10° WSW 19:49:50 76° SSE 19:51:58 20° E visible
29 Sep -1.7 21:23:02 10° W 21:24:38 26° W 21:24:38 26° W visible
30 Sep -4.0 20:31:04 10° W 20:34:23 87° N 20:34:39 74° E visible
01 Oct -3.8 19:39:05 10° W 19:42:24 89° NNW 19:44:38 19° E visible
01 Oct -1.8 21:15:36 10° W 21:17:18 27° W 21:17:18 27° W visible
